シューメーカー-レヴィ第2彗星

137P/Shoemaker-Levy 2 (2000)

English version
Home page
Total 6,336 html files since Dec. 4, 1995
Updated on March 11, 2001

---------------------------------------------------------------------

・ プロフィール

符号 137P/1998 K6
検出日 1998年 5月19日
検出光度 21.0等
検出者 C. W. Hergenrother (Smithsonian Astrophysical Observatory)

・ 軌道要素

   The following improved orbital elements by Kenji Muraoka, are 
  from 48 observations 1990 to 1999, perturbations by 9 Plantes, 
  Moon and 5 minor planets were taken into account. 
   The mean residual is +/- 0.69 arc seconds.

      Epoch  =  2000 Jan  = 2451560.5
          T  =  2000 Feb.  5.82301       +/- 0.00033 (m.e.) TT
       Peri. =  142.02045                +/- 0.00030
       Node  =  234.75346                +/- 0.00028   (2000.0)
       Incl. =    4.65702                +/- 0.00003
          q  =    1.8685698              +/- 0.0000048 AU
          e  =    0.5797056              +/- 0.0000010
          a  =    4.4458594              +/- 0.0000035 AU
          n  =    0.10514061             +/- 0.00000012
          P  =    9.374                  +/- 0.0000110  years

・ 星図

・ 1998年 1月 7日〜1999年12月28日
・ 1999年12月28日〜2000年 6月 5日

・ 光度変化

        m1 = 15.0 + 5 logΔ + 5.0 log r

---------------------------------------------------------------------

軌道要素は村岡健治氏の計算によるものです。
星図は StellaNavigator Ver.2.0 for Windows (アストロアーツ 編著 / アスキー出版局刊) で作成したものです。
光度グラフはComet for Windowsで作成したものです。

---------------------------------------------------------------------

Copyright(C) 1995-2008 Seiichi Yoshida (comet@aerith.net). All rights reserved.